#timestamp,LO_Frequency,Hit,StdDev 
1625342415.6,286047001.0,N
1625342435.4,286047000.3,N
1625342455.2,286047002.7,N
1625342475.1,286047001.2,N
1625342476.0,286047001.2,N
1625342495.8,286047000.3,N
1625342515.7,286046998.6,N
1625342535.5,286046998.8,N
1625342555.3,286046999.2,N
1625342575.2,286046998.7,N
1625342595.0,286046998.4,N
1625342595.9,286046998.4,N
1625342615.8,286046999.0,N
1625342635.6,286046998.4,N
1625342655.4,286046998.3,N
1625342705.3,286046998.6,E
1625342715.2,286046998.6,N
1625342735.0,286046998.2,P
1625342735.9,286046998.2,P
1625342755.8,286047000.9,Y
1625342775.6,286047002.4,P
1625342795.5,286047000.1,N
1625342815.3,286047000.2,N
1625342835.1,286047000.2,N
1625342855.9,286047002.4,N
1625342875.7,286047002.0,N
1625342895.5,286047002.2,N
1625342915.4,286047002.8,N
1625342935.2,286047002.8,N
1625342955.1,286047002.1,N
1625342956.0,286047002.1,N
1625342975.8,286047001.8,N
1625342995.7,286047001.8,N
1625343015.5,286047001.4,N
1625343035.3,286047004.4,Y
1625343055.2,286047000.0,P
1625343075.0,286047001.6,N
1625343075.9,286047001.6,N
1625343095.7,286047002.1,Y
1625343115.6,286047000.2,P
1625343135.4,286046999.9,N
1625343155.3,286047000.2,N
1625343175.1,286047000.3,N
1625343176.0,286047000.3,N
1625343195.8,286047000.3,N
1625343215.7,286047000.5,N
1625343235.5,286047001.0,N
1625343255.3,286047001.0,N
1625343275.2,286046999.8,N
1625343295.0,286047001.0,N
1625343295.9,286047001.0,N
1625343315.8,286047001.0,N
1625343335.6,286046998.2,Y
1625343355.4,286047001.0,P
1625343375.3,286047001.0,P
1625343395.1,286047001.0,P
1625343415.9,286047000.9,Y
1625343435.7,286046998.7,P
1625343455.5,286046998.9,N
1625343475.4,286046999.1,N
1625343495.2,286046996.8,Y
1625343515.1,286046999.4,P
1625343516.0,286046999.4,P
1625343535.8,286046998.9,P
1625343555.6,286046996.6,Y
1625343575.5,286046996.5,P
1625343595.3,286046996.5,N
1625343615.1,286046999.5,N
1625343635.9,286046996.6,N
1625343655.7,286046997.2,N
1625343675.6,286046997.0,N
1625343695.4,286046997.1,N
1625343715.2,286046998.7,N
1625343735.1,286046999.4,N
1625343736.0,286046999.4,N
1625343755.8,286046999.5,N
1625343775.6,286046999.5,N
1625343795.5,286046996.6,N
1625343815.3,286046996.5,N
1625343835.2,286046998.9,N
1625343855.9,286047001.2,N
1625343875.7,286046998.1,N
1625343895.6,286046999.3,N
1625343915.4,286047000.7,N
1625343935.2,286047001.0,N
1625343955.1,286047002.7,N
1625343956.0,286047002.7,N
1625343975.8,286047002.6,N
1625343995.7,286047002.4,N
1625344015.5,286047002.1,N
1625344035.3,286047002.3,N
1625344055.2,286047001.5,N
1625344075.0,286047001.6,N
1625344075.9,286047001.6,N
1625344095.7,286047002.3,N
1625344115.6,286047002.5,N
1625344135.4,286047002.7,N
1625344155.3,286047000.9,N
1625344175.1,286047000.3,N
1625344176.0,286047000.3,N
1625344195.8,286047000.9,N
1625344215.7,286047000.1,N
1625344235.5,286047000.5,N
1625344255.3,286047000.2,N
1625344275.2,286046998.6,N
1625344295.0,286046999.1,N
1625344295.9,286046999.1,N
1625344315.8,286046999.4,N
1625344335.6,286046998.3,N
1625344355.4,286046998.2,N
1625344375.3,286047000.8,N
1625344395.1,286046999.9,N
1625344415.9,286047002.6,N
1625344435.7,286047002.0,N
1625344455.5,286047004.0,N
1625344475.4,286047001.7,N
1625344495.2,286047002.3,N
1625344515.0,286046999.9,N
1625344516.0,286046999.9,N
1625344535.8,286047002.4,N
1625344555.6,286047001.5,N
1625344575.5,286047002.1,N
1625344595.3,286047002.8,N
1625344615.1,286047002.6,N
1625344635.9,286047002.5,N
1625344655.7,286046999.7,N
1625344675.6,286046999.7,N
1625344695.4,286046998.8,N
1625344715.2,286046998.2,N
1625344735.1,286046999.1,N
1625344736.0,286046999.1,N
1625344755.8,286046998.6,N
1625344775.6,286047000.3,N
1625344795.5,286046998.5,N
1625344815.3,286046996.7,N
1625344835.2,286046997.3,N
1625344855.9,286046997.5,N
1625344875.7,286046998.6,N
1625344895.6,286046999.6,N
1625344915.4,286046999.4,N
1625344935.2,286046998.3,N
1625344955.1,286047000.9,N
1625344956.0,286047000.9,N
1625344975.8,286047001.1,N
1625344995.7,286046999.8,N
1625345015.5,286047001.5,N
1625345035.3,286047004.4,N
1625345055.2,286047004.0,N
1625345075.0,286047001.3,N
1625345075.9,286047001.3,N
1625345095.8,286047004.1,N
1625345115.6,286047004.3,N
1625345135.4,286047003.8,N
1625345155.3,286047003.9,N
1625345175.1,286047004.3,N
1625345195.9,286047003.5,N
1625345215.7,286047003.7,N
1625345235.5,286047001.3,N
1625345255.4,286047001.7,N
1625345275.2,286047011.9,Y
1625345295.1,286047002.7,P
1625345296.0,286047002.7,P
1625345315.8,286047001.6,N
1625345335.6,286047002.0,N
1625345355.5,286047002.1,Y
1625345375.3,286047001.0,P
1625345395.2,286047000.0,N
1625345415.9,286047000.5,N
1625345435.7,286047000.0,N
1625345455.6,286047000.0,N
1625345475.4,286047001.5,N
1625345495.2,286047002.2,N
1625345515.1,286047001.9,N
1625345516.0,286047001.9,N
1625345535.8,286047002.1,N
1625345555.7,286047001.4,N
1625345575.5,286047002.2,N
1625345595.3,286046999.9,N
1625345615.2,286047001.2,N
1625345635.0,286047000.6,N
1625345635.9,286047000.6,N
1625345655.8,286047000.3,N
1625345675.6,286047000.0,N
1625345695.5,286046999.7,N
1625345715.3,286047002.8,Y
1625345735.1,286047000.6,P
1625345755.9,286046998.2,P
1625345775.7,286046998.4,N
1625345795.6,286046998.3,N
1625345815.4,286047000.6,N
1625345835.2,286047000.8,N
1625345855.1,286046998.5,N
1625345856.0,286046998.5,N
1625345875.8,286047001.2,N
1625345895.6,286047000.4,N
1625345915.5,286047000.7,N
1625345935.3,286047000.7,N
1625345955.2,286047000.5,N
1625345975.0,286047000.2,N
1625345975.9,286047000.2,N
1625345995.8,286046998.6,N
